Regional Weather Roundup
Issued by NWS

Home | Current Version | Previous Version | Text Only | Print | Product List | Glossary Off
Versions: 1 2 3 4 5 6 7 8 9 10 11 12 13 14 15 16 17 18 19 20 21 22 23 24 25 26 27 28 29 30 31 32 33 34 35 36 37 38 39 40 41 42 43 44 45 46 47 48 49 50

000
ASUS43 KLMK 251202
RWRKY
KENTUCKY REGIONAL WEATHER ROUNDUP
NATIONAL WEATHER SERVICE LOUISVILLE KY
800 AM EDT THU AUG 25 2016

NOTE "FAIR" INDICATES FEW OR NO CLOUDS BELOW 12,000 FEET
WITH NO SIGNIFICANT WEATHER AND/OR OBSTRUCTIONS TO VISIBILITY.

KYZ001>023-026-027-061>063-070>075-251300-
WESTERN AND SOUTH CENTRAL KENTUCKY

CITY           SKY/WX    TMP DP  RH WIND       PRES   REMARKS
PADUCAH        CLEAR     75  72  90 S3        30.10S
HENDERSON      CLEAR     75  72  88 SW5       30.08R
OWENSBORO      CLEAR     76  76 100 S8        30.10S
HOPKINSVILLE   CLEAR     76  73  91 CALM      30.13S
BOWLING GREEN  PTCLDY    76  72  87 SW3       30.15R
GLASGOW        PTCLDY    73  73 100 CALM      30.16R
$$

KYZ024-025-028>034-038-045-046-053-251300-
NORTH CENTRAL KENTUCKY

CITY           SKY/WX    TMP DP  RH WIND       PRES   REMARKS
LOUISVILLE/SDF PTCLDY    79  73  82 S7        30.10R
LOUISVILLE/LOU CLEAR     78  72  81 S3        30.11R
FORT KNOX      CLEAR     75  73  93 S5        30.10F
$$

KYZ035>037-039>044-047>052-055>060-089>105-251300-
NORTHEAST KENTUCKY

CITY           SKY/WX    TMP DP  RH WIND       PRES   REMARKS
LEXINGTON      SUNNY     74  70  87 S7        30.14S
COVINGTON      NOT AVBL
FRANKFORT      SUNNY     76  71  85 SW6       30.12S
$$

KYZ054-064>069-076>088-106>120-251300-
SOUTHEAST KENTUCKY

CITY           SKY/WX    TMP DP  RH WIND       PRES   REMARKS
JACKSON        SUNNY     72  69  90 CALM      30.18S
LONDON         SUNNY     71  68  90 CALM      30.19S FOG
SOMERSET       PTSUNNY   72  72 100 CALM      30.19R
MIDDLESBORO    CLOUDY    67  67 100 CALM      30.22S FOG
MONTICELLO     SUNNY    N/A N/A N/A W9        30.20R
$$




USA.gov is the U.S. government's official web portal to all federal, state and local government web resources and services.